Location: El Portezuelo
(28.4984°N, 16.3589°W)
Time: 18:53:52
(UTC+00:00)

OAO 1 - Pass Details

Date: 20 January 2020
Orbit: 773 x 784 km, 35.0° (Epoch: 16 February)

Event Time Altitude Azimuth Distance (km) Brightness Sun altitude
Exits shadow 06:24:49 33° 243° (WSW) 1,278 5.2 -20.4°
Maximum altitude 06:27:21 86° 157° (SSE) 780 4.5 -19.8°
Drops below altitude 10° 06:32:52 10° 69° (ENE) 2,324 7.8 -18.7°
Sets 06:35:21 0° 68° (ENE) 3,255 8.7 -18.1°
